COSMOS 886 DEB

Satellite information

Favourite Embed

Satellite Type and Status

DEBRISIN ORBIT

Key statistics

Satellite COSMOS 886 DEB at a glance.

Uptime

17724

Days in orbit

Revolutions

≈ 13.0

Per day

Orbit

LEO

Low Earth Orbit

Inclination

65.8

Latest

Satellite identification and parameters

Extended collection of information and parameters for COSMOS 886 DEB.

Object identification

Identified? True

Debris? True

Object name: COSMOS 886 DEB

International designator: 1976-126J

Object number (NORAD): 9652

Object ID (CCSDS): 9652

Country: COMMONWEALTH OF INDEPENDENT STATES (CIS)

Current information (Y/N): Y

RCS size: MEDIUM

Orbital parameters

Period: 111.132 minutes

Inclination: 65.8294 deg

SMA: 7656.887 km

Apoapsis: 1956.388 km

Periapsis: 601.116 km

RAAN: 147.448 deg

Eccentricy: 0.0885002

Argument of periapsis: 125.8099 deg

Mean anomaly: 242.8494 deg

Mean motion: 12.95759491 rev/day

Mean motion (dot): 0.00000534 rev/day2

B* drag term: 0.00033188 1/REarth

Two-line elements (TLE)

Creation date: July 6, 2025, 10:26 p.m.

Reference frame: TEME

Reference center: EARTH

Epoch: July 6, 2025, 9:33 p.m. UTC

TLE line 0: 0 COSMOS 886 DEB

TLE line 1: 1 9652U 76126J 25187.89839470 .00000534 00000-0 33188-3 0 9993

TLE line 2: 2 9652 65.8294 147.4480 0885002 125.8099 242.8494 12.95759491264358

Live tracking on map

Real-time ground track for satellite COSMOS 886 DEB.

In-orbit conjunctions

A list of the most updated potential collisions computed for object COSMOS 886 DEB.

Target Orbit TCA Probability of collision Miss distance Type
FENGYUN 1C DEB SSO 2025-02-07 09:27:52 0.000106331 125.0 (m) DEBRIS
PSLV R/B SSO 2024-10-28 18:14:21 0.00010684 951.0 (m) ROCKET BODY

Associated space launch

Second generation ASAT satellite

COSMOS 886 DEB was lifted into orbit during the mission ‘Tsiklon-2 | IS-A 4’, on board a Tsiklon-2 space rocket.

The launch took place on Dec. 27, 1976, 12:05 p.m. from 90.

For more information about the launch, click the button.

Launch to space Tsiklon-2 | IS-A 4
Tsiklon-2 | IS-A 4

Agency: N/A

Status: Launch Successful

Launch date: Dec. 27, 1976, 12:05 p.m. UTC

Rocket: Tsiklon-2

Launch pad: 90

Location: Baikonur Cosmodrome, Republic of Kazakhstan

...

Latest news about this satellite

There are no fresh news available about this satellite. Check back as we update our databases every day.


Newsletter sign-up

Weekly statistics, charts and insights to help you stay on top of the space industry.